SP3NYX-11 Weather Reports


Display with metric or nautical units.
time (UTC)temp
F
wind
direction
speed
MPH
gust
MPH
rain 1hr
in
rain 24hr
in
rain mn
in
humidity
%
barometer
mb
20260504141207 74 244 4.0 7.0 0.00 0.00 0.00 25 1010.0
20260504141005 74 240 4.0 7.0 0.00 0.00 0.00 25 1010.0
20260504140806 74 240 5.0 7.0 0.00 0.00 0.00 26 1010.0
20260504140606 73 255 4.0 9.0 0.00 0.00 0.00 26 1010.0
20260504140405 73 258 5.0 13.0 0.00 0.00 0.00 26 1010.0
20260504130805 75 253 4.0 11.0 0.00 0.00 0.00 24 1010.0
20260504130606 75 247 6.0 11.0 0.00 0.00 0.00 24 1010.0
20260504130406 73 249 6.0 16.0 0.00 0.00 0.00 25 1010.0
20260504130205 74 245 8.0 16.0 0.00 0.00 0.00 24 1010.0
20260504120206 80 290 6.0 13.0 0.00 0.00 0.00 23 1011.0
20260504110407 71 281 8.0 15.0 0.00 0.00 0.00 29 1011.0
20260504110205 71 283 7.0 15.0 0.00 0.00 0.00 28 1011.0
20260504100606 76 272 7.0 15.0 0.00 0.00 0.00 30 1011.0
20260504100406 72 271 5.0 15.0 0.00 0.00 0.00 31 1011.0
20260504082006 65 261 7.0 13.0 0.00 0.00 0.00 35 1012.0
20260504081808 64 262 8.0 13.0 0.00 0.00 0.00 35 1012.0
20260504081605 65 263 9.0 13.0 0.00 0.00 0.00 35 1012.0
20260504081405 65 263 10.0 13.0 0.00 0.00 0.00 35 1012.0
20260504081007 65 266 7.0 13.0 0.00 0.00 0.00 35 1012.0
20260504080806 64 266 9.0 13.0 0.00 0.00 0.00 35 1012.0
20260504080606 65 266 8.0 11.0 0.00 0.00 0.00 35 1012.0
20260504080405 65 268 7.0 11.0 0.00 0.00 0.00 35 1012.0
20260504080206 65 264 10.0 11.0 0.00 0.00 0.00 34 1012.0
20260504070406 63 189 7.0 13.0 0.00 0.00 0.00 36 1011.0
20260504070206 62 182 11.0 13.0 0.00 0.00 0.00 36 1011.0
20260504060206 61 190 6.0 10.0 0.00 0.00 0.00 36 1011.0
20260504050606 59 185 7.0 11.0 0.00 0.00 0.00 36 1011.0
20260504050405 59 190 8.0 13.0 0.00 0.00 0.00 36 1011.0
20260504050206 59 197 7.0 15.0 0.00 0.00 0.00 36 1011.0
20260504045805 59 201 10.0 15.0 0.00 0.00 0.00 35 1010.0
20260504045605 59 201 11.0 15.0 0.00 0.00 0.00 35 1010.0
20260504044806 61 199 8.0 11.0 0.00 0.00 0.00 34 1010.0
20260504044606 61 199 8.0 10.0 0.00 0.00 0.00 34 1010.0
20260504044405 62 197 5.0 10.0 0.00 0.00 0.00 34 1010.0
20260504044206 62 191 7.0 10.0 0.00 0.00 0.00 34 1010.0
20260504043806 61 196 8.0 10.0 0.00 0.00 0.00 34 1010.0
20260504043605 61 210 6.0 10.0 0.00 0.00 0.00 34 1010.0
20260504043406 61 228 6.0 10.0 0.00 0.00 0.00 34 1010.0
20260504043206 61 255 5.0 10.0 0.00 0.00 0.00 34 1010.0
20260504043006 62 274 7.0 10.0 0.00 0.00 0.00 34 1010.0
20260504042805 61 288 4.0 10.0 0.00 0.00 0.00 34 1010.0
20260504042606 61 297 0.0 10.0 0.00 0.00 0.00 34 1010.0
20260504042406 61 301 5.0 15.0 0.00 0.00 0.00 34 1010.0
20260504042206 61 306 3.0 15.0 0.00 0.00 0.00 34 1010.0
20260504042006 61 307 5.0 15.0 0.00 0.00 0.00 34 1010.0
20260504041807 61 308 6.0 15.0 0.00 0.00 0.00 34 1010.0
20260504041605 61 308 9.0 15.0 0.00 0.00 0.00 34 1010.0
20260504041207 61 300 4.0 13.0 0.00 0.00 0.00 34 1010.0
20260504041006 61 295 3.0 13.0 0.00 0.00 0.00 34 1010.0
20260504040806 61 291 8.0 13.0 0.00 0.00 0.00 34 1010.0
20260504040605 61 289 5.0 13.0 0.00 0.00 0.00 34 1010.0
20260504040406 61 290 7.0 13.0 0.00 0.00 0.00 33 1010.0
20260504040206 62 294 7.0 12.0 0.00 0.00 0.00 33 1010.0
20260504040006 62 292 8.0 15.0 0.00 0.00 0.00 33 1010.0
20260504035805 61 287 6.0 16.0 0.00 0.00 0.00 33 1010.0
20260504035606 61 284 7.0 16.0 0.00 0.00 0.00 33 1010.0
20260504035406 61 283 7.0 16.0 0.00 0.00 0.00 33 1010.0
20260504035005 62 285 12.0 20.0 0.00 0.00 0.00 33 1010.0
20260504034806 62 288 6.0 20.0 0.00 0.00 0.00 33 1010.0
20260504034605 62 290 8.0 20.0 0.00 0.00 0.00 33 1010.0
20260504034406 62 286 13.0 20.0 0.00 0.00 0.00 33 1010.0
20260504034207 63 282 15.0 20.0 0.00 0.00 0.00 33 1010.0
20260504034006 62 277 11.0 17.0 0.00 0.00 0.00 33 1010.0
20260504033805 62 276 10.0 17.0 0.00 0.00 0.00 33 1010.0
20260504033605 63 273 13.0 17.0 0.00 0.00 0.00 33 1010.0
20260504033006 62 269 11.0 16.0 0.00 0.00 0.00 33 1010.0
20260504032607 63 260 12.0 16.0 0.00 0.00 0.00 33 1010.0
20260504032206 62 253 10.0 14.0 0.00 0.00 0.00 33 1010.0
20260504032006 62 251 8.0 14.0 0.00 0.00 0.00 33 1010.0
20260504031805 62 247 8.0 13.0 0.00 0.00 0.00 33 1010.0
20260504031606 62 244 7.0 13.0 0.00 0.00 0.00 33 1010.0
20260504031406 62 237 7.0 11.0 0.00 0.00 0.00 34 1010.0
20260504031207 61 230 7.0 9.0 0.00 0.00 0.00 34 1010.0
20260504031006 61 225 6.0 9.0 0.00 0.00 0.00 34 1010.0
20260504030806 61 221 4.0 10.0 0.00 0.00 0.00 34 1010.0
20260504030607 61 219 7.0 10.0 0.00 0.00 0.00 34 1010.0
20260504030005 60 216 7.0 10.0 0.00 0.00 0.00 34 1010.0
20260504025806 60 217 7.0 9.0 0.00 0.00 0.00 34 1010.0
20260504025406 60 219 7.0 11.0 0.00 0.00 0.00 34 1010.0
20260504025005 60 217 7.0 12.0 0.00 0.00 0.00 34 1010.0
20260504024606 60 210 10.0 12.0 0.00 0.00 0.00 34 1010.0
20260504024406 60 207 9.0 12.0 0.00 0.00 0.00 34 1010.0
20260504024205 60 204 9.0 11.0 0.00 0.00 0.00 34 1010.0
20260504024007 60 201 8.0 11.0 0.00 0.00 0.00 34 1010.0
20260504023806 60 199 9.0 12.0 0.00 0.00 0.00 34 1010.0
20260504023607 59 198 9.0 12.0 0.00 0.00 0.00 34 1010.0
20260504023405 59 198 10.0 12.0 0.00 0.00 0.00 34 1010.0
20260504023206 59 198 9.0 12.0 0.00 0.00 0.00 34 1010.0
20260504023007 60 197 10.0 12.0 0.00 0.00 0.00 34 1010.0
20260504022606 59 196 8.0 11.0 0.00 0.00 0.00 34 1010.0
20260504022406 59 193 9.0 11.0 0.00 0.00 0.00 34 1010.0
20260504022006 59 189 8.0 11.0 0.00 0.00 0.00 34 1010.0
20260504021806 60 189 9.0 11.0 0.00 0.00 0.00 34 1010.0
20260504021405 60 190 8.0 11.0 0.00 0.00 0.00 33 1010.0
20260504021007 60 188 8.0 11.0 0.00 0.00 0.00 33 1010.0
20260504020807 60 190 9.0 12.0 0.00 0.00 0.00 33 1010.0
20260504015806 61 193 9.0 12.0 0.00 0.00 0.00 31 1010.0
20260504015605 61 195 9.0 12.0 0.00 0.00 0.00 31 1010.0
20260504015406 61 197 10.0 12.0 0.00 0.00 0.00 31 1010.0
20260504015207 61 198 9.0 12.0 0.00 0.00 0.00 31 1010.0
20260504015006 61 200 10.0 12.0 0.00 0.00 0.00 31 1010.0
20260504014806 61 200 10.0 12.0 0.00 0.00 0.00 31 1010.0
20260504014606 61 200 8.0 12.0 0.00 0.00 0.00 31 1010.0
20260504014205 61 200 9.0 12.0 0.00 0.00 0.00 30 1010.0
20260504014005 61 201 10.0 12.0 0.00 0.00 0.00 30 1010.0
20260504013806 61 200 9.0 12.0 0.00 0.00 0.00 30 1010.0
20260504013607 61 200 9.0 12.0 0.00 0.00 0.00 30 1010.0
20260504013406 61 202 9.0 12.0 0.00 0.00 0.00 30 1010.0
20260504013206 61 204 8.0 12.0 0.00 0.00 0.00 30 1010.0
20260504013006 62 204 9.0 12.0 0.00 0.00 0.00 29 1010.0
20260504012806 62 206 9.0 12.0 0.00 0.00 0.00 29 1010.0
20260504012606 62 205 9.0 13.0 0.00 0.00 0.00 29 1010.0
20260504012406 62 204 10.0 13.0 0.00 0.00 0.00 29 1010.0
20260504012007 62 206 9.0 13.0 0.00 0.00 0.00 28 1010.0
20260504011605 62 207 9.0 13.0 0.00 0.00 0.00 28 1010.0
20260504011405 62 209 8.0 13.0 0.00 0.00 0.00 28 1010.0
20260504011006 62 211 9.0 13.0 0.00 0.00 0.00 28 1010.0
20260504010605 62 213 9.0 13.0 0.00 0.00 0.00 28 1010.0
20260504010407 62 215 8.0 13.0 0.00 0.00 0.00 28 1010.0
20260504010206 62 214 9.0 13.0 0.00 0.00 0.00 28 1010.0
20260504010007 62 214 9.0 13.0 0.00 0.00 0.00 28 1010.0
20260504005806 62 215 9.0 13.0 0.00 0.00 0.00 28 1010.0
20260504005606 62 216 9.0 13.0 0.00 0.00 0.00 28 1010.0
20260504005405 62 214 9.0 13.0 0.00 0.00 0.00 27 1010.0
20260504005206 62 214 10.0 13.0 0.00 0.00 0.00 27 1010.0
20260504005006 62 212 9.0 13.0 0.00 0.00 0.00 27 1010.0
20260504004806 62 211 11.0 15.0 0.00 0.00 0.00 27 1010.0
20260504004606 62 209 10.0 15.0 0.00 0.00 0.00 27 1010.0
20260504004407 62 207 10.0 15.0 0.00 0.00 0.00 27 1009.0
20260504004207 63 204 11.0 15.0 0.00 0.00 0.00 27 1009.0
20260504004006 63 200 12.0 15.0 0.00 0.00 0.00 27 1009.0
20260504003807 63 196 11.0 15.0 0.00 0.00 0.00 27 1009.0
20260504003607 63 194 10.0 15.0 0.00 0.00 0.00 27 1009.0
20260504003406 63 194 12.0 16.0 0.00 0.00 0.00 27 1009.0
20260504003205 63 193 12.0 16.0 0.00 0.00 0.00 27 1009.0
20260504003006 63 193 11.0 17.0 0.00 0.00 0.00 27 1009.0
20260504002606 63 194 12.0 17.0 0.00 0.00 0.00 27 1009.0
20260504002405 63 195 13.0 17.0 0.00 0.00 0.00 27 1009.0
20260504002206 63 196 11.0 19.0 0.00 0.00 0.00 27 1009.0
20260504002006 63 197 13.0 19.0 0.00 0.00 0.00 27 1009.0
20260504001807 63 196 11.0 19.0 0.00 0.00 0.00 26 1009.0
20260504001606 63 197 14.0 19.0 0.00 0.00 0.00 26 1009.0
20260504001406 63 198 14.0 19.0 0.00 0.00 0.00 26 1009.0
20260504001206 64 198 13.0 19.0 0.00 0.00 0.00 26 1009.0
20260504001006 63 198 14.0 19.0 0.00 0.00 0.00 26 1009.0
20260504000806 63 198 12.0 17.0 0.00 0.00 0.00 26 1009.0
20260504000606 64 194 13.0 17.0 0.00 0.00 0.00 26 1009.0
20260504000006 63 181 11.0 14.0 0.00 0.00 0.00 26 1009.0
20260503235805 63 179 11.0 14.0 0.00 0.00 0.00 26 1009.0
20260503235606 63 178 11.0 13.0 0.00 0.00 0.00 26 1009.0
20260503235206 63 176 10.0 13.0 0.00 0.00 0.00 26 1009.0
20260503235006 63 176 11.0 13.0 0.00 0.00 0.00 26 1009.0
20260503234806 63 175 11.0 14.0 0.00 0.00 0.00 26 1009.0
20260503234206 63 172 11.0 14.0 0.00 0.00 0.00 26 1009.0
20260503234007 63 170 12.0 14.0 0.00 0.00 0.00 26 1009.0
20260503233605 62 167 10.0 12.0 0.00 0.00 0.00 25 1009.0
20260503233405 63 167 11.0 12.0 0.00 0.00 0.00 25 1009.0
20260503233206 63 167 10.0 12.0 0.00 0.00 0.00 25 1009.0
20260503232406 63 166 10.0 13.0 0.00 0.00 0.00 25 1009.0
20260503232006 63 167 11.0 13.0 0.00 0.00 0.00 25 1009.0
20260503231806 63 167 10.0 13.0 0.00 0.00 0.00 25 1009.0
20260503231608 63 167 10.0 12.0 0.00 0.00 0.00 25 1009.0
20260503231206 63 166 10.0 12.0 0.00 0.00 0.00 25 1009.0
20260503230806 63 164 11.0 12.0 0.00 0.00 0.00 25 1009.0
20260503230406 64 164 11.0 12.0 0.00 0.00 0.00 24 1009.0
20260503230207 64 165 10.0 12.0 0.00 0.00 0.00 24 1009.0
20260503230006 64 166 10.0 12.0 0.00 0.00 0.00 24 1009.0
20260503225806 64 166 10.0 12.0 0.00 0.00 0.00 24 1009.0
20260503225607 64 167 11.0 12.0 0.00 0.00 0.00 24 1009.0
20260503225205 64 166 11.0 12.0 0.00 0.00 0.00 24 1009.0
20260503225006 64 166 11.0 12.0 0.00 0.00 0.00 24 1009.0
20260503224806 64 167 10.0 12.0 0.00 0.00 0.00 24 1009.0
20260503224606 64 168 10.0 12.0 0.00 0.00 0.00 24 1009.0
20260503224407 64 169 10.0 13.0 0.00 0.00 0.00 24 1009.0
20260503224206 64 170 9.0 13.0 0.00 0.00 0.00 23 1009.0
20260503224006 65 171 10.0 14.0 0.00 0.00 0.00 23 1009.0
20260503223606 65 171 11.0 14.0 0.00 0.00 0.00 23 1009.0
20260503223407 65 172 10.0 14.0 0.00 0.00 0.00 23 1009.0
20260503223206 65 172 9.0 14.0 0.00 0.00 0.00 23 1009.0
20260503223007 65 172 9.0 13.0 0.00 0.00 0.00 23 1009.0
20260503222806 65 173 10.0 12.0 0.00 0.00 0.00 23 1009.0
20260503222606 65 172 10.0 13.0 0.00 0.00 0.00 23 1009.0
20260503222405 65 172 9.0 13.0 0.00 0.00 0.00 23 1009.0
20260503222206 65 172 8.0 13.0 0.00 0.00 0.00 23 1009.0
20260503222006 65 172 10.0 13.0 0.00 0.00 0.00 23 1009.0
20260503221606 65 174 11.0 13.0 0.00 0.00 0.00 22 1009.0
20260503221406 65 174 9.0 13.0 0.00 0.00 0.00 22 1009.0
20260503221207 66 173 11.0 13.0 0.00 0.00 0.00 22 1009.0
20260503221006 65 172 10.0 13.0 0.00 0.00 0.00 22 1009.0
20260503220806 65 173 9.0 13.0 0.00 0.00 0.00 22 1009.0
20260503220606 65 173 10.0 13.0 0.00 0.00 0.00 22 1009.0
20260503220406 65 175 9.0 13.0 0.00 0.00 0.00 22 1009.0
20260503220206 65 176 10.0 13.0 0.00 0.00 0.00 22 1009.0
20260503215807 66 175 11.0 12.0 0.00 0.00 0.00 22 1010.0
20260503215607 65 174 10.0 12.0 0.00 0.00 0.00 22 1010.0
20260503215406 65 172 9.0 10.0 0.00 0.00 0.00 22 1010.0
20260503215206 65 171 9.0 10.0 0.00 0.00 0.00 22 1010.0
20260503215005 65 171 9.0 10.0 0.00 0.00 0.00 22 1010.0
20260503214806 65 170 8.0 10.0 0.00 0.00 0.00 22 1010.0
20260503214606 65 170 9.0 11.0 0.00 0.00 0.00 22 1010.0
20260503214405 65 169 8.0 11.0 0.00 0.00 0.00 22 1010.0
20260503214206 65 169 8.0 11.0 0.00 0.00 0.00 20 1010.0
20260503214006 65 169 9.0 11.0 0.00 0.00 0.00 20 1010.0
20260503213805 66 169 9.0 11.0 0.00 0.00 0.00 20 1010.0
20260503213606 65 169 8.0 11.0 0.00 0.00 0.00 20 1010.0
20260503213406 66 169 9.0 11.0 0.00 0.00 0.00 20 1010.0
20260503213205 65 170 10.0 11.0 0.00 0.00 0.00 20 1010.0
20260503213006 66 170 8.0 12.0 0.00 0.00 0.00 20 1010.0
20260503212806 66 169 9.0 12.0 0.00 0.00 0.00 20 1010.0
20260503212407 66 170 9.0 13.0 0.00 0.00 0.00 20 1010.0
20260503212207 66 170 7.0 13.0 0.00 0.00 0.00 20 1010.0
20260503212006 66 171 9.0 13.0 0.00 0.00 0.00 17 1010.0
20260503211806 67 173 9.0 13.0 0.00 0.00 0.00 17 1010.0
20260503211606 67 175 9.0 13.0 0.00 0.00 0.00 17 1010.0
20260503211406 67 175 9.0 13.0 0.00 0.00 0.00 17 1010.0
20260503211205 67 174 10.0 13.0 0.00 0.00 0.00 17 1010.0
20260503211006 67 174 9.0 12.0 0.00 0.00 0.00 17 1010.0
20260503210606 67 175 9.0 12.0 0.00 0.00 0.00 17 1010.0
20260503210407 67 176 10.0 13.0 0.00 0.00 0.00 14 1010.0
20260503210206 68 176 9.0 13.0 0.00 0.00 0.00 14 1010.0
20260503210006 68 177 10.0 13.0 0.00 0.00 0.00 14 1010.0
20260503205805 67 174 8.0 13.0 0.00 0.00 0.00 14 1010.0
20260503205406 68 175 11.0 17.0 0.00 0.00 0.00 14 1010.0
20260503205206 68 176 11.0 17.0 0.00 0.00 0.00 14 1010.0
20260503205007 68 177 10.0 17.0 0.00 0.00 0.00 14 1010.0
20260503204806 68 178 8.0 17.0 0.00 0.00 0.00 14 1010.0
20260503204606 69 178 13.0 17.0 0.00 0.00 0.00 14 1010.0
20260503204406 69 178 12.0 15.0 0.00 0.00 0.00 14 1010.0
20260503204205 69 176 11.0 15.0 0.00 0.00 0.00 14 1010.0
20260503204006 69 174 10.0 15.0 0.00 0.00 0.00 14 1010.0
20260503203806 69 174 9.0 13.0 0.00 0.00 0.00 14 1010.0
20260503203606 69 174 11.0 13.0 0.00 0.00 0.00 14 1010.0
20260503203406 68 174 11.0 13.0 0.00 0.00 0.00 14 1010.0
20260503203206 68 176 8.0 13.0 0.00 0.00 0.00 12 1010.0
20260503203006 69 178 9.0 13.0 0.00 0.00 0.00 12 1010.0
20260503202806 69 179 9.0 13.0 0.00 0.00 0.00 12 1010.0
20260503202606 69 181 9.0 13.0 0.00 0.00 0.00 12 1010.0
20260503202407 69 182 10.0 14.0 0.00 0.00 0.00 11 1010.0
20260503202206 69 184 9.0 14.0 0.00 0.00 0.00 11 1010.0
20260503202005 69 182 10.0 14.0 0.00 0.00 0.00 11 1010.0
20260503201806 70 179 9.0 14.0 0.00 0.00 0.00 11 1010.0
20260503201406 70 177 11.0 13.0 0.00 0.00 0.00 11 1010.0
20260503201206 70 176 8.0 13.0 0.00 0.00 0.00 11 1010.0
20260503201006 70 176 11.0 13.0 0.00 0.00 0.00 11 1010.0
20260503200805 70 176 10.0 12.0 0.00 0.00 0.00 11 1010.0
20260503200606 69 177 10.0 11.0 0.00 0.00 0.00 11 1010.0
20260503200406 70 176 9.0 11.0 0.00 0.00 0.00 11 1010.0
20260503200205 70 176 9.0 11.0 0.00 0.00 0.00 11 1010.0
20260503200006 70 177 9.0 11.0 0.00 0.00 0.00 11 1010.0
20260503195806 70 179 8.0 11.0 0.00 0.00 0.00 11 1010.0
20260503195606 70 181 8.0 11.0 0.00 0.00 0.00 11 1010.0
20260503195407 70 182 9.0 11.0 0.00 0.00 0.00 11 1010.0
20260503195206 70 183 10.0 11.0 0.00 0.00 0.00 11 1010.0
20260503195006 70 184 9.0 11.0 0.00 0.00 0.00 11 1010.0
20260503194807 70 184 8.0 11.0 0.00 0.00 0.00 11 1010.0
20260503194406 70 185 8.0 12.0 0.00 0.00 0.00 11 1010.0
20260503194006 71 184 9.0 12.0 0.00 0.00 0.00 11 1010.0
20260503193805 71 183 9.0 12.0 0.00 0.00 0.00 11 1010.0
20260503193606 71 183 10.0 12.0 0.00 0.00 0.00 11 1010.0
20260503193407 71 182 9.0 11.0 0.00 0.00 0.00 11 1010.0
20260503193206 71 182 10.0 12.0 0.00 0.00 0.00 11 1010.0
20260503193006 71 178 9.0 12.0 0.00 0.00 0.00 11 1010.0
20260503192607 71 177 10.0 12.0 0.00 0.00 0.00 11 1010.0
20260503192407 71 177 11.0 12.0 0.00 0.00 0.00 11 1010.0
20260503192006 71 181 9.0 12.0 0.00 0.00 0.00 11 1010.0
20260503191806 71 179 11.0 12.0 0.00 0.00 0.00 11 1010.0
20260503191606 71 178 8.0 12.0 0.00 0.00 0.00 11 1010.0
20260503191407 71 181 10.0 12.0 0.00 0.00 0.00 11 1010.0
20260503191006 71 182 10.0 13.0 0.00 0.00 0.00 11 1010.0
20260503190806 71 183 9.0 13.0 0.00 0.00 0.00 11 1010.0
20260503190606 71 186 8.0 13.0 0.00 0.00 0.00 11 1010.0
20260503190406 71 186 10.0 13.0 0.00 0.00 0.00 11 1010.0
20260503190206 71 186 8.0 13.0 0.00 0.00 0.00 11 1010.0
20260503190005 71 184 11.0 13.0 0.00 0.00 0.00 11 1010.0
20260503185806 71 183 11.0 13.0 0.00 0.00 0.00 11 1010.0
20260503185606 71 182 10.0 13.0 0.00 0.00 0.00 11 1010.0
20260503185407 71 179 10.0 13.0 0.00 0.00 0.00 11 1010.0
20260503185207 71 177 8.0 12.0 0.00 0.00 0.00 11 1010.0
20260503185006 71 177 9.0 12.0 0.00 0.00 0.00 11 1010.0
20260503184606 71 176 8.0 11.0 0.00 0.00 0.00 11 1010.0
20260503184406 71 176 10.0 11.0 0.00 0.00 0.00 11 1010.0
20260503184206 71 178 8.0 11.0 0.00 0.00 0.00 11 1010.0
20260503184006 71 179 7.0 11.0 0.00 0.00 0.00 11 1010.0
20260503183406 72 187 9.0 12.0 0.00 0.00 0.00 11 1010.0
20260503183207 72 187 7.0 12.0 0.00 0.00 0.00 11 1010.0
20260503183006 72 188 9.0 12.0 0.00 0.00 0.00 10 1010.0
20260503182805 72 186 10.0 12.0 0.00 0.00 0.00 10 1009.0
20260503182607 72 185 7.0 12.0 0.00 0.00 0.00 10 1009.0
20260503182406 72 186 10.0 12.0 0.00 0.00 0.00 10 1009.0
20260503182206 72 187 10.0 12.0 0.00 0.00 0.00 10 1009.0
20260503182007 72 186 10.0 12.0 0.00 0.00 0.00 10 1009.0
20260503181806 72 186 9.0 13.0 0.00 0.00 0.00 10 1009.0
20260503181608 72 187 8.0 13.0 0.00 0.00 0.00 10 1009.0
20260503181406 73 185 9.0 13.0 0.00 0.00 0.00 10 1009.0
20260503181206 73 183 9.0 13.0 0.00 0.00 0.00 10 1009.0
20260503181006 73 184 10.0 13.0 0.00 0.00 0.00 10 1009.0
20260503180806 73 185 9.0 11.0 0.00 0.00 0.00 10 1009.0
20260503180606 73 184 7.0 11.0 0.00 0.00 0.00 10 1009.0
20260503180406 73 187 8.0 11.0 0.00 0.00 0.00 10 1009.0
20260503180205 73 188 9.0 11.0 0.00 0.00 0.00 10 1009.0
20260503180006 73 185 8.0 11.0 0.00 0.00 0.00 10 1009.0
20260503175806 73 185 7.0 11.0 0.00 0.00 0.00 10 1009.0
20260503175406 74 179 8.0 10.0 0.00 0.00 0.00 10 1009.0
20260503175206 74 176 7.0 9.0 0.00 0.00 0.00 10 1009.0
20260503175006 74 178 7.0 11.0 0.00 0.00 0.00 10 1009.0
20260503174805 74 176 8.0 11.0 0.00 0.00 0.00 10 1009.0
20260503174606 74 176 7.0 11.0 0.00 0.00 0.00 10 1009.0
20260503174406 74 176 7.0 11.0 0.00 0.00 0.00 10 1009.0
20260503174006 75 179 7.0 11.0 0.00 0.00 0.00 10 1009.0
20260503173806 75 185 9.0 11.0 0.00 0.00 0.00 10 1009.0
20260503173607 75 186 8.0 10.0 0.00 0.00 0.00 10 1009.0
20260503173406 75 186 8.0 12.0 0.00 0.00 0.00 10 1009.0
20260503172806 76 177 6.0 12.0 0.00 0.00 0.00 10 1009.0
20260503172606 76 175 9.0 12.0 0.00 0.00 0.00 10 1009.0
20260503172406 76 175 8.0 11.0 0.00 0.00 0.00 10 1009.0
20260503172207 76 175 7.0 12.0 0.00 0.00 0.00 10 1009.0
20260503172008 77 178 7.0 12.0 0.00 0.00 0.00 10 1009.0
20260503171806 76 179 7.0 13.0 0.00 0.00 0.00 10 1009.0
20260503171607 77 182 7.0 13.0 0.00 0.00 0.00 10 1009.0
20260503171206 77 181 6.0 13.0 0.00 0.00 0.00 10 1009.0
20260503171006 77 179 10.0 13.0 0.00 0.00 0.00 10 1009.0
20260503170806 77 179 9.0 13.0 0.00 0.00 0.00 10 1009.0
20260503170605 77 179 8.0 13.0 0.00 0.00 0.00 10 1009.0
20260503170406 77 178 8.0 13.0 0.00 0.00 0.00 10 1009.0
20260503170206 77 179 9.0 13.0 0.00 0.00 0.00 10 1009.0
20260503160206 81 195 12.0 14.0 0.00 0.00 0.00 10 1009.0
20260503151006 83 159 7.0 14.0 0.00 0.00 0.00 10 1010.0
20260503150809 83 165 12.0 14.0 0.00 0.00 0.00 10 1010.0
20260503150606 85 176 7.0 13.0 0.00 0.00 0.00 10 1010.0
20260503150407 84 184 7.0 13.0 0.00 0.00 0.00 10 1010.0
20260503150206 84 195 7.0 13.0 0.00 0.00 0.00 10 1010.0